Index of /20260503/WXO-DD/model_rdps/10km/18/057
Name Last modified Size Description
Parent Directory -
20260503T18Z_MSC_RDPS_AbsoluteVorticity_IsbL-0250_RLatLon0.09_PT057H.grib2 2026-05-03 20:57 601K
20260503T18Z_MSC_RDPS_AbsoluteVorticity_IsbL-0500_RLatLon0.09_PT057H.grib2 2026-05-03 20:57 559K
20260503T18Z_MSC_RDPS_AbsoluteVorticity_IsbL-0700_RLatLon0.09_PT057H.grib2 2026-05-03 20:57 613K
20260503T18Z_MSC_RDPS_AbsoluteVorticity_IsbL-0850_RLatLon0.09_PT057H.grib2 2026-05-03 20:57 782K
20260503T18Z_MSC_RDPS_AirTemp_AGL-120m_RLatLon0.09_PT057H.grib2 2026-05-03 20:57 385K
20260503T18Z_MSC_RDPS_AirTemp_AGL-2m_RLatLon0.09_PT057H.grib2 2026-05-03 20:57 620K
20260503T18Z_MSC_RDPS_AirTemp_AGL-40m_RLatLon0.09_PT057H.grib2 2026-05-03 20:57 380K
20260503T18Z_MSC_RDPS_AirTemp_AGL-80m_RLatLon0.09_PT057H.grib2 2026-05-03 20:57 389K
20260503T18Z_MSC_RDPS_AirTemp_IsbL-0001_RLatLon0.09_PT057H.grib2 2026-05-03 20:57 297K
20260503T18Z_MSC_RDPS_AirTemp_IsbL-0005_RLatLon0.09_PT057H.grib2 2026-05-03 20:57 288K
20260503T18Z_MSC_RDPS_AirTemp_IsbL-0010_RLatLon0.09_PT057H.grib2 2026-05-03 20:57 296K
20260503T18Z_MSC_RDPS_AirTemp_IsbL-0020_RLatLon0.09_PT057H.grib2 2026-05-03 20:57 314K
20260503T18Z_MSC_RDPS_AirTemp_IsbL-0030_RLatLon0.09_PT057H.grib2 2026-05-03 20:57 333K
20260503T18Z_MSC_RDPS_AirTemp_IsbL-0050_RLatLon0.09_PT057H.grib2 2026-05-03 20:57 314K
20260503T18Z_MSC_RDPS_AirTemp_IsbL-0100_RLatLon0.09_PT057H.grib2 2026-05-03 20:57 424K
20260503T18Z_MSC_RDPS_AirTemp_IsbL-0150_RLatLon0.09_PT057H.grib2 2026-05-03 20:57 418K
20260503T18Z_MSC_RDPS_AirTemp_IsbL-0175_RLatLon0.09_PT057H.grib2 2026-05-03 20:57 409K
20260503T18Z_MSC_RDPS_AirTemp_IsbL-0200_RLatLon0.09_PT057H.grib2 2026-05-03 20:57 411K
20260503T18Z_MSC_RDPS_AirTemp_IsbL-0225_RLatLon0.09_PT057H.grib2 2026-05-03 20:57 410K
20260503T18Z_MSC_RDPS_AirTemp_IsbL-0250_RLatLon0.09_PT057H.grib2 2026-05-03 20:57 416K
20260503T18Z_MSC_RDPS_AirTemp_IsbL-0275_RLatLon0.09_PT057H.grib2 2026-05-03 20:57 398K
20260503T18Z_MSC_RDPS_AirTemp_IsbL-0300_RLatLon0.09_PT057H.grib2 2026-05-03 20:57 407K
20260503T18Z_MSC_RDPS_AirTemp_IsbL-0350_RLatLon0.09_PT057H.grib2 2026-05-03 20:57 425K
20260503T18Z_MSC_RDPS_AirTemp_IsbL-0400_RLatLon0.09_PT057H.grib2 2026-05-03 20:57 429K
20260503T18Z_MSC_RDPS_AirTemp_IsbL-0450_RLatLon0.09_PT057H.grib2 2026-05-03 20:57 436K
20260503T18Z_MSC_RDPS_AirTemp_IsbL-0500_RLatLon0.09_PT057H.grib2 2026-05-03 20:57 446K
20260503T18Z_MSC_RDPS_AirTemp_IsbL-0550_RLatLon0.09_PT057H.grib2 2026-05-03 20:57 463K
20260503T18Z_MSC_RDPS_AirTemp_IsbL-0600_RLatLon0.09_PT057H.grib2 2026-05-03 20:57 445K
20260503T18Z_MSC_RDPS_AirTemp_IsbL-0650_RLatLon0.09_PT057H.grib2 2026-05-03 20:57 459K
20260503T18Z_MSC_RDPS_AirTemp_IsbL-0700_RLatLon0.09_PT057H.grib2 2026-05-03 20:57 376K
20260503T18Z_MSC_RDPS_AirTemp_IsbL-0750_RLatLon0.09_PT057H.grib2 2026-05-03 20:57 405K
20260503T18Z_MSC_RDPS_AirTemp_IsbL-0800_RLatLon0.09_PT057H.grib2 2026-05-03 20:57 448K
20260503T18Z_MSC_RDPS_AirTemp_IsbL-0850_RLatLon0.09_PT057H.grib2 2026-05-03 20:57 503K
20260503T18Z_MSC_RDPS_AirTemp_IsbL-0875_RLatLon0.09_PT057H.grib2 2026-05-03 20:57 524K
20260503T18Z_MSC_RDPS_AirTemp_IsbL-0900_RLatLon0.09_PT057H.grib2 2026-05-03 20:57 530K
20260503T18Z_MSC_RDPS_AirTemp_IsbL-0925_RLatLon0.09_PT057H.grib2 2026-05-03 20:57 524K
20260503T18Z_MSC_RDPS_AirTemp_IsbL-0950_RLatLon0.09_PT057H.grib2 2026-05-03 20:57 518K
20260503T18Z_MSC_RDPS_AirTemp_IsbL-0970_RLatLon0.09_PT057H.grib2 2026-05-03 20:57 509K
20260503T18Z_MSC_RDPS_AirTemp_IsbL-0985_RLatLon0.09_PT057H.grib2 2026-05-03 20:57 496K
20260503T18Z_MSC_RDPS_AirTemp_IsbL-1000_RLatLon0.09_PT057H.grib2 2026-05-03 20:57 479K
20260503T18Z_MSC_RDPS_AirTemp_IsbL-1015_RLatLon0.09_PT057H.grib2 2026-05-03 20:57 483K
20260503T18Z_MSC_RDPS_Albedo_Sfc_RLatLon0.09_PT057H.grib2 2026-05-03 20:57 158K
20260503T18Z_MSC_RDPS_CAPE_Sfc_RLatLon0.09_PT057H.grib2 2026-05-03 20:57 1.7M
20260503T18Z_MSC_RDPS_CIN_Sfc_RLatLon0.09_PT057H.grib2 2026-05-03 20:57 1.2M
20260503T18Z_MSC_RDPS_CloudWater_EAtm_RLatLon0.09_PT057H.grib2 2026-05-03 20:57 221K
20260503T18Z_MSC_RDPS_ConvectivePrecip-Accum_Sfc_RLatLon0.09_PT057H.grib2 2026-05-03 20:57 1.1M
20260503T18Z_MSC_RDPS_DewPointDepression_AGL-2m_RLatLon0.09_PT057H.grib2 2026-05-03 20:57 401K
20260503T18Z_MSC_RDPS_DewPointDepression_IsbL-0001_RLatLon0.09_PT057H.grib2 2026-05-03 20:57 193
20260503T18Z_MSC_RDPS_DewPointDepression_IsbL-0005_RLatLon0.09_PT057H.grib2 2026-05-03 20:57 193
20260503T18Z_MSC_RDPS_DewPointDepression_IsbL-0010_RLatLon0.09_PT057H.grib2 2026-05-03 20:57 193
20260503T18Z_MSC_RDPS_DewPointDepression_IsbL-0020_RLatLon0.09_PT057H.grib2 2026-05-03 20:57 193
20260503T18Z_MSC_RDPS_DewPointDepression_IsbL-0030_RLatLon0.09_PT057H.grib2 2026-05-03 20:57 193
20260503T18Z_MSC_RDPS_DewPointDepression_IsbL-0050_RLatLon0.09_PT057H.grib2 2026-05-03 20:57 76K
20260503T18Z_MSC_RDPS_DewPointDepression_IsbL-0100_RLatLon0.09_PT057H.grib2 2026-05-03 20:57 112K
20260503T18Z_MSC_RDPS_DewPointDepression_IsbL-0150_RLatLon0.09_PT057H.grib2 2026-05-03 20:57 144K
20260503T18Z_MSC_RDPS_DewPointDepression_IsbL-0175_RLatLon0.09_PT057H.grib2 2026-05-03 20:57 186K
20260503T18Z_MSC_RDPS_DewPointDepression_IsbL-0200_RLatLon0.09_PT057H.grib2 2026-05-03 20:57 220K
20260503T18Z_MSC_RDPS_DewPointDepression_IsbL-0225_RLatLon0.09_PT057H.grib2 2026-05-03 20:57 253K
20260503T18Z_MSC_RDPS_DewPointDepression_IsbL-0250_RLatLon0.09_PT057H.grib2 2026-05-03 20:57 299K
20260503T18Z_MSC_RDPS_DewPointDepression_IsbL-0275_RLatLon0.09_PT057H.grib2 2026-05-03 20:57 310K
20260503T18Z_MSC_RDPS_DewPointDepression_IsbL-0300_RLatLon0.09_PT057H.grib2 2026-05-03 20:57 326K
20260503T18Z_MSC_RDPS_DewPointDepression_IsbL-0350_RLatLon0.09_PT057H.grib2 2026-05-03 20:57 331K
20260503T18Z_MSC_RDPS_DewPointDepression_IsbL-0400_RLatLon0.09_PT057H.grib2 2026-05-03 20:57 341K
20260503T18Z_MSC_RDPS_DewPointDepression_IsbL-0450_RLatLon0.09_PT057H.grib2 2026-05-03 20:57 346K
20260503T18Z_MSC_RDPS_DewPointDepression_IsbL-0500_RLatLon0.09_PT057H.grib2 2026-05-03 20:57 350K
20260503T18Z_MSC_RDPS_DewPointDepression_IsbL-0550_RLatLon0.09_PT057H.grib2 2026-05-03 20:57 361K
20260503T18Z_MSC_RDPS_DewPointDepression_IsbL-0600_RLatLon0.09_PT057H.grib2 2026-05-03 20:57 371K
20260503T18Z_MSC_RDPS_DewPointDepression_IsbL-0650_RLatLon0.09_PT057H.grib2 2026-05-03 20:57 375K
20260503T18Z_MSC_RDPS_DewPointDepression_IsbL-0700_RLatLon0.09_PT057H.grib2 2026-05-03 20:57 383K
20260503T18Z_MSC_RDPS_DewPointDepression_IsbL-0750_RLatLon0.09_PT057H.grib2 2026-05-03 20:57 403K
20260503T18Z_MSC_RDPS_DewPointDepression_IsbL-0800_RLatLon0.09_PT057H.grib2 2026-05-03 20:57 432K
20260503T18Z_MSC_RDPS_DewPointDepression_IsbL-0850_RLatLon0.09_PT057H.grib2 2026-05-03 20:57 474K
20260503T18Z_MSC_RDPS_DewPointDepression_IsbL-0875_RLatLon0.09_PT057H.grib2 2026-05-03 20:57 475K
20260503T18Z_MSC_RDPS_DewPointDepression_IsbL-0900_RLatLon0.09_PT057H.grib2 2026-05-03 20:57 464K
20260503T18Z_MSC_RDPS_DewPointDepression_IsbL-0925_RLatLon0.09_PT057H.grib2 2026-05-03 20:57 449K
20260503T18Z_MSC_RDPS_DewPointDepression_IsbL-0950_RLatLon0.09_PT057H.grib2 2026-05-03 20:57 438K
20260503T18Z_MSC_RDPS_DewPointDepression_IsbL-0970_RLatLon0.09_PT057H.grib2 2026-05-03 20:57 431K
20260503T18Z_MSC_RDPS_DewPointDepression_IsbL-0985_RLatLon0.09_PT057H.grib2 2026-05-03 20:57 427K
20260503T18Z_MSC_RDPS_DewPointDepression_IsbL-1000_RLatLon0.09_PT057H.grib2 2026-05-03 20:57 421K
20260503T18Z_MSC_RDPS_DewPointDepression_IsbL-1015_RLatLon0.09_PT057H.grib2 2026-05-03 20:57 413K
20260503T18Z_MSC_RDPS_DewPoint_AGL-2m_RLatLon0.09_PT057H.grib2 2026-05-03 20:57 300K
20260503T18Z_MSC_RDPS_DownwardLongwaveRadiationFlux-Accum_Sfc_RLatLon0.09_PT057H.grib2 2026-05-03 20:57 403K
20260503T18Z_MSC_RDPS_DownwardShortwaveRadiationFlux-Accum_NTAtm_RLatLon0.09_PT057H.grib2 2026-05-03 20:57 110K
20260503T18Z_MSC_RDPS_DownwardShortwaveRadiationFlux-Accum_Sfc_RLatLon0.09_PT057H.grib2 2026-05-03 20:57 601K
20260503T18Z_MSC_RDPS_FreezingRain-Accum1h_Sfc_RLatLon0.09_PT057H.grib2 2026-05-03 20:57 23K
20260503T18Z_MSC_RDPS_FreezingRain-Accum3h_Sfc_RLatLon0.09_PT057H.grib2 2026-05-03 20:57 30K
20260503T18Z_MSC_RDPS_FreezingRain-Accum_Sfc_RLatLon0.09_PT057H.grib2 2026-05-03 20:57 172K
20260503T18Z_MSC_RDPS_GeopotentialHeight_IsbL-0001_RLatLon0.09_PT057H.grib2 2026-05-03 20:57 308K
20260503T18Z_MSC_RDPS_GeopotentialHeight_IsbL-0005_RLatLon0.09_PT057H.grib2 2026-05-03 20:57 335K
20260503T18Z_MSC_RDPS_GeopotentialHeight_IsbL-0010_RLatLon0.09_PT057H.grib2 2026-05-03 20:57 335K
20260503T18Z_MSC_RDPS_GeopotentialHeight_IsbL-0020_RLatLon0.09_PT057H.grib2 2026-05-03 20:57 303K
20260503T18Z_MSC_RDPS_GeopotentialHeight_IsbL-0030_RLatLon0.09_PT057H.grib2 2026-05-03 20:57 401K
20260503T18Z_MSC_RDPS_GeopotentialHeight_IsbL-0050_RLatLon0.09_PT057H.grib2 2026-05-03 20:57 307K
20260503T18Z_MSC_RDPS_GeopotentialHeight_IsbL-0100_RLatLon0.09_PT057H.grib2 2026-05-03 20:57 284K
20260503T18Z_MSC_RDPS_GeopotentialHeight_IsbL-0150_RLatLon0.09_PT057H.grib2 2026-05-03 20:57 227K
20260503T18Z_MSC_RDPS_GeopotentialHeight_IsbL-0175_RLatLon0.09_PT057H.grib2 2026-05-03 20:57 229K
20260503T18Z_MSC_RDPS_GeopotentialHeight_IsbL-0200_RLatLon0.09_PT057H.grib2 2026-05-03 20:57 234K
20260503T18Z_MSC_RDPS_GeopotentialHeight_IsbL-0225_RLatLon0.09_PT057H.grib2 2026-05-03 20:57 235K
20260503T18Z_MSC_RDPS_GeopotentialHeight_IsbL-0250_RLatLon0.09_PT057H.grib2 2026-05-03 20:57 236K
20260503T18Z_MSC_RDPS_GeopotentialHeight_IsbL-0275_RLatLon0.09_PT057H.grib2 2026-05-03 20:57 235K
20260503T18Z_MSC_RDPS_GeopotentialHeight_IsbL-0300_RLatLon0.09_PT057H.grib2 2026-05-03 20:57 235K
20260503T18Z_MSC_RDPS_GeopotentialHeight_IsbL-0350_RLatLon0.09_PT057H.grib2 2026-05-03 20:57 231K
20260503T18Z_MSC_RDPS_GeopotentialHeight_IsbL-0400_RLatLon0.09_PT057H.grib2 2026-05-03 20:57 227K
20260503T18Z_MSC_RDPS_GeopotentialHeight_IsbL-0450_RLatLon0.09_PT057H.grib2 2026-05-03 20:57 297K
20260503T18Z_MSC_RDPS_GeopotentialHeight_IsbL-0500_RLatLon0.09_PT057H.grib2 2026-05-03 20:57 293K
20260503T18Z_MSC_RDPS_GeopotentialHeight_IsbL-0550_RLatLon0.09_PT057H.grib2 2026-05-03 20:57 290K
20260503T18Z_MSC_RDPS_GeopotentialHeight_IsbL-0600_RLatLon0.09_PT057H.grib2 2026-05-03 20:57 285K
20260503T18Z_MSC_RDPS_GeopotentialHeight_IsbL-0650_RLatLon0.09_PT057H.grib2 2026-05-03 20:57 257K
20260503T18Z_MSC_RDPS_GeopotentialHeight_IsbL-0700_RLatLon0.09_PT057H.grib2 2026-05-03 20:57 256K
20260503T18Z_MSC_RDPS_GeopotentialHeight_IsbL-0750_RLatLon0.09_PT057H.grib2 2026-05-03 20:57 341K
20260503T18Z_MSC_RDPS_GeopotentialHeight_IsbL-0800_RLatLon0.09_PT057H.grib2 2026-05-03 20:57 348K
20260503T18Z_MSC_RDPS_GeopotentialHeight_IsbL-0850_RLatLon0.09_PT057H.grib2 2026-05-03 20:57 361K
20260503T18Z_MSC_RDPS_GeopotentialHeight_IsbL-0875_RLatLon0.09_PT057H.grib2 2026-05-03 20:57 361K
20260503T18Z_MSC_RDPS_GeopotentialHeight_IsbL-0900_RLatLon0.09_PT057H.grib2 2026-05-03 20:57 365K
20260503T18Z_MSC_RDPS_GeopotentialHeight_IsbL-0925_RLatLon0.09_PT057H.grib2 2026-05-03 20:57 281K
20260503T18Z_MSC_RDPS_GeopotentialHeight_IsbL-0950_RLatLon0.09_PT057H.grib2 2026-05-03 20:57 282K
20260503T18Z_MSC_RDPS_GeopotentialHeight_IsbL-0970_RLatLon0.09_PT057H.grib2 2026-05-03 20:57 285K
20260503T18Z_MSC_RDPS_GeopotentialHeight_IsbL-0985_RLatLon0.09_PT057H.grib2 2026-05-03 20:57 290K
20260503T18Z_MSC_RDPS_GeopotentialHeight_IsbL-1000_RLatLon0.09_PT057H.grib2 2026-05-03 20:57 298K
20260503T18Z_MSC_RDPS_GeopotentialHeight_IsbL-1015_RLatLon0.09_PT057H.grib2 2026-05-03 20:57 308K
20260503T18Z_MSC_RDPS_Humidex_Sfc_RLatLon0.09_PT057H.grib2 2026-05-03 20:57 2.4M
20260503T18Z_MSC_RDPS_IcePellets-Accum1h_Sfc_RLatLon0.09_PT057H.grib2 2026-05-03 20:57 9.0K
20260503T18Z_MSC_RDPS_IcePellets-Accum3h_Sfc_RLatLon0.09_PT057H.grib2 2026-05-03 20:57 10K
20260503T18Z_MSC_RDPS_IcePellets-Accum_Sfc_RLatLon0.09_PT057H.grib2 2026-05-03 20:57 40K
20260503T18Z_MSC_RDPS_KIndex_Sfc_RLatLon0.09_PT057H.grib2 2026-05-03 20:57 2.5M
20260503T18Z_MSC_RDPS_LatentHeatNetFlux_Sfc_RLatLon0.09_PT057H.grib2 2026-05-03 20:57 328K
20260503T18Z_MSC_RDPS_LiftedIndex-MU-VT_IsbL-0500_RLatLon0.09_PT057H.grib2 2026-05-03 20:57 2.4M
20260503T18Z_MSC_RDPS_NetLongwaveRadiationFlux-Accum_Sfc_RLatLon0.09_PT057H.grib2 2026-05-03 20:57 582K
20260503T18Z_MSC_RDPS_NetShortwaveRadiationFlux-Accum_Sfc_RLatLon0.09_PT057H.grib2 2026-05-03 20:57 599K
20260503T18Z_MSC_RDPS_PlanetaryBoundaryLayerHeight_Sfc_RLatLon0.09_PT057H.grib2 2026-05-03 20:57 1.1M
20260503T18Z_MSC_RDPS_Precip-Accum1h_Sfc_RLatLon0.09_PT057H.grib2 2026-05-03 20:57 1.2M
20260503T18Z_MSC_RDPS_Precip-Accum3h_Sfc_RLatLon0.09_PT057H.grib2 2026-05-03 20:57 1.3M
20260503T18Z_MSC_RDPS_Precip-Accum_Sfc_RLatLon0.09_PT057H.grib2 2026-05-03 20:57 2.2M
20260503T18Z_MSC_RDPS_PrecipRate_Sfc_RLatLon0.09_PT057H.grib2 2026-05-03 20:57 193K
20260503T18Z_MSC_RDPS_PrecipType-Instant_Sfc_RLatLon0.09_PT057H.grib2 2026-05-03 20:57 593K
20260503T18Z_MSC_RDPS_Pressure-Trend3h_Sfc_RLatLon0.09_PT057H.grib2 2026-05-03 20:57 1.2M
20260503T18Z_MSC_RDPS_Pressure_MSL_RLatLon0.09_PT057H.grib2 2026-05-03 20:57 325K
20260503T18Z_MSC_RDPS_Pressure_PVU-1.5_RLatLon0.09_PT057H.grib2 2026-05-03 20:57 2.5M
20260503T18Z_MSC_RDPS_Pressure_PVU-1_RLatLon0.09_PT057H.grib2 2026-05-03 20:57 2.4M
20260503T18Z_MSC_RDPS_Pressure_PVU-2_RLatLon0.09_PT057H.grib2 2026-05-03 20:57 2.4M
20260503T18Z_MSC_RDPS_Pressure_Sfc_RLatLon0.09_PT057H.grib2 2026-05-03 20:57 497K
20260503T18Z_MSC_RDPS_RadiativeTemp_Sfc_RLatLon0.09_PT057H.grib2 2026-05-03 20:57 300K
20260503T18Z_MSC_RDPS_Rain-Accum1h_Sfc_RLatLon0.09_PT057H.grib2 2026-05-03 20:57 617K
20260503T18Z_MSC_RDPS_Rain-Accum3h_Sfc_RLatLon0.09_PT057H.grib2 2026-05-03 20:57 706K
20260503T18Z_MSC_RDPS_Rain-Accum_Sfc_RLatLon0.09_PT057H.grib2 2026-05-03 20:57 1.8M
20260503T18Z_MSC_RDPS_RelativeHumidity_AGL-2m_RLatLon0.09_PT057H.grib2 2026-05-03 20:57 1.0M
20260503T18Z_MSC_RDPS_RelativeHumidity_IsbL-0010_RLatLon0.09_PT057H.grib2 2026-05-03 20:57 686K
20260503T18Z_MSC_RDPS_RelativeHumidity_IsbL-0020_RLatLon0.09_PT057H.grib2 2026-05-03 20:57 653K
20260503T18Z_MSC_RDPS_RelativeHumidity_IsbL-0030_RLatLon0.09_PT057H.grib2 2026-05-03 20:57 635K
20260503T18Z_MSC_RDPS_RelativeHumidity_IsbL-0050_RLatLon0.09_PT057H.grib2 2026-05-03 20:57 358K
20260503T18Z_MSC_RDPS_RelativeHumidity_IsbL-0100_RLatLon0.09_PT057H.grib2 2026-05-03 20:57 270K
20260503T18Z_MSC_RDPS_RelativeHumidity_IsbL-0150_RLatLon0.09_PT057H.grib2 2026-05-03 20:57 421K
20260503T18Z_MSC_RDPS_RelativeHumidity_IsbL-0175_RLatLon0.09_PT057H.grib2 2026-05-03 20:57 486K
20260503T18Z_MSC_RDPS_RelativeHumidity_IsbL-0200_RLatLon0.09_PT057H.grib2 2026-05-03 20:57 558K
20260503T18Z_MSC_RDPS_RelativeHumidity_IsbL-0225_RLatLon0.09_PT057H.grib2 2026-05-03 20:57 616K
20260503T18Z_MSC_RDPS_RelativeHumidity_IsbL-0250_RLatLon0.09_PT057H.grib2 2026-05-03 20:57 682K
20260503T18Z_MSC_RDPS_RelativeHumidity_IsbL-0275_RLatLon0.09_PT057H.grib2 2026-05-03 20:57 709K
20260503T18Z_MSC_RDPS_RelativeHumidity_IsbL-0300_RLatLon0.09_PT057H.grib2 2026-05-03 20:57 752K
20260503T18Z_MSC_RDPS_RelativeHumidity_IsbL-0350_RLatLon0.09_PT057H.grib2 2026-05-03 20:57 773K
20260503T18Z_MSC_RDPS_RelativeHumidity_IsbL-0400_RLatLon0.09_PT057H.grib2 2026-05-03 20:57 788K
20260503T18Z_MSC_RDPS_RelativeHumidity_IsbL-0450_RLatLon0.09_PT057H.grib2 2026-05-03 20:57 794K
20260503T18Z_MSC_RDPS_RelativeHumidity_IsbL-0500_RLatLon0.09_PT057H.grib2 2026-05-03 20:57 797K
20260503T18Z_MSC_RDPS_RelativeHumidity_IsbL-0550_RLatLon0.09_PT057H.grib2 2026-05-03 20:57 814K
20260503T18Z_MSC_RDPS_RelativeHumidity_IsbL-0600_RLatLon0.09_PT057H.grib2 2026-05-03 20:57 841K
20260503T18Z_MSC_RDPS_RelativeHumidity_IsbL-0650_RLatLon0.09_PT057H.grib2 2026-05-03 20:57 843K
20260503T18Z_MSC_RDPS_RelativeHumidity_IsbL-0700_RLatLon0.09_PT057H.grib2 2026-05-03 20:57 865K
20260503T18Z_MSC_RDPS_RelativeHumidity_IsbL-0750_RLatLon0.09_PT057H.grib2 2026-05-03 20:57 904K
20260503T18Z_MSC_RDPS_RelativeHumidity_IsbL-0800_RLatLon0.09_PT057H.grib2 2026-05-03 20:57 964K
20260503T18Z_MSC_RDPS_RelativeHumidity_IsbL-0850_RLatLon0.09_PT057H.grib2 2026-05-03 20:57 1.0M
20260503T18Z_MSC_RDPS_RelativeHumidity_IsbL-0875_RLatLon0.09_PT057H.grib2 2026-05-03 20:57 1.1M
20260503T18Z_MSC_RDPS_RelativeHumidity_IsbL-0900_RLatLon0.09_PT057H.grib2 2026-05-03 20:57 1.1M
20260503T18Z_MSC_RDPS_RelativeHumidity_IsbL-0925_RLatLon0.09_PT057H.grib2 2026-05-03 20:57 1.1M
20260503T18Z_MSC_RDPS_RelativeHumidity_IsbL-0950_RLatLon0.09_PT057H.grib2 2026-05-03 20:57 1.1M
20260503T18Z_MSC_RDPS_RelativeHumidity_IsbL-0970_RLatLon0.09_PT057H.grib2 2026-05-03 20:57 1.0M
20260503T18Z_MSC_RDPS_RelativeHumidity_IsbL-0985_RLatLon0.09_PT057H.grib2 2026-05-03 20:57 1.0M
20260503T18Z_MSC_RDPS_RelativeHumidity_IsbL-1000_RLatLon0.09_PT057H.grib2 2026-05-03 20:57 1.0M
20260503T18Z_MSC_RDPS_RelativeHumidity_IsbL-1015_RLatLon0.09_PT057H.grib2 2026-05-03 20:57 1.0M
20260503T18Z_MSC_RDPS_Runoff-Accum_Sfc_RLatLon0.09_PT057H.grib2 2026-05-03 20:57 61K
20260503T18Z_MSC_RDPS_SWEATIndex_Sfc_RLatLon0.09_PT057H.grib2 2026-05-03 20:57 2.4M
20260503T18Z_MSC_RDPS_SeeingIndex_EAtm_RLatLon0.09_PT057H.grib2 2026-05-03 20:57 1.0M
20260503T18Z_MSC_RDPS_SensibleHeatNetFlux_Sfc_RLatLon0.09_PT057H.grib2 2026-05-03 20:57 296K
20260503T18Z_MSC_RDPS_ShowalterIndex_IsbL-0500_RLatLon0.09_PT057H.grib2 2026-05-03 20:57 2.6M
20260503T18Z_MSC_RDPS_SkyTransparencyIndex_EAtm_RLatLon0.09_PT057H.grib2 2026-05-03 20:57 699K
20260503T18Z_MSC_RDPS_Snow-Accum1h_Sfc_RLatLon0.09_PT057H.grib2 2026-05-03 20:57 463K
20260503T18Z_MSC_RDPS_Snow-Accum3h_Sfc_RLatLon0.09_PT057H.grib2 2026-05-03 20:57 470K
20260503T18Z_MSC_RDPS_Snow-Accum_Sfc_RLatLon0.09_PT057H.grib2 2026-05-03 20:57 758K
20260503T18Z_MSC_RDPS_SnowDensity_Sfc_RLatLon0.09_PT057H.grib2 2026-05-03 20:57 174K
20260503T18Z_MSC_RDPS_SnowDepth_Sfc_RLatLon0.09_PT057H.grib2 2026-05-03 20:57 651K
20260503T18Z_MSC_RDPS_SoilTemp_DBS-0to10cm_RLatLon0.09_PT057H.grib2 2026-05-03 20:57 247K
20260503T18Z_MSC_RDPS_SoilTemp_Sfc_RLatLon0.09_PT057H.grib2 2026-05-03 20:57 277K
20260503T18Z_MSC_RDPS_SoilVolumetricIceContent_Sfc_RLatLon0.09_PT057H.grib2 2026-05-03 20:57 152K
20260503T18Z_MSC_RDPS_SoilVolumetricWaterContent_DBS-0to10cm_RLatLon0.09_PT057H.grib2 2026-05-03 20:57 279K
20260503T18Z_MSC_RDPS_SoilVolumetricWaterContent_DBS-0to1cm_RLatLon0.09_PT057H.grib2 2026-05-03 20:57 341K
20260503T18Z_MSC_RDPS_SpecificHumidity_AGL-120m_RLatLon0.09_PT057H.grib2 2026-05-03 20:57 484K
20260503T18Z_MSC_RDPS_SpecificHumidity_AGL-2m_RLatLon0.09_PT057H.grib2 2026-05-03 20:57 650K
20260503T18Z_MSC_RDPS_SpecificHumidity_AGL-40m_RLatLon0.09_PT057H.grib2 2026-05-03 20:57 489K
20260503T18Z_MSC_RDPS_SpecificHumidity_AGL-80m_RLatLon0.09_PT057H.grib2 2026-05-03 20:57 484K
20260503T18Z_MSC_RDPS_SpecificHumidity_IsbL-0001_RLatLon0.09_PT057H.grib2 2026-05-03 20:57 366K
20260503T18Z_MSC_RDPS_SpecificHumidity_IsbL-0005_RLatLon0.09_PT057H.grib2 2026-05-03 20:57 372K
20260503T18Z_MSC_RDPS_SpecificHumidity_IsbL-0010_RLatLon0.09_PT057H.grib2 2026-05-03 20:57 399K
20260503T18Z_MSC_RDPS_SpecificHumidity_IsbL-0020_RLatLon0.09_PT057H.grib2 2026-05-03 20:57 379K
20260503T18Z_MSC_RDPS_SpecificHumidity_IsbL-0030_RLatLon0.09_PT057H.grib2 2026-05-03 20:57 371K
20260503T18Z_MSC_RDPS_SpecificHumidity_IsbL-0050_RLatLon0.09_PT057H.grib2 2026-05-03 20:57 481K
20260503T18Z_MSC_RDPS_SpecificHumidity_IsbL-0100_RLatLon0.09_PT057H.grib2 2026-05-03 20:57 415K
20260503T18Z_MSC_RDPS_SpecificHumidity_IsbL-0150_RLatLon0.09_PT057H.grib2 2026-05-03 20:57 460K
20260503T18Z_MSC_RDPS_SpecificHumidity_IsbL-0175_RLatLon0.09_PT057H.grib2 2026-05-03 20:57 449K
20260503T18Z_MSC_RDPS_SpecificHumidity_IsbL-0200_RLatLon0.09_PT057H.grib2 2026-05-03 20:57 459K
20260503T18Z_MSC_RDPS_SpecificHumidity_IsbL-0225_RLatLon0.09_PT057H.grib2 2026-05-03 20:57 455K
20260503T18Z_MSC_RDPS_SpecificHumidity_IsbL-0250_RLatLon0.09_PT057H.grib2 2026-05-03 20:57 562K
20260503T18Z_MSC_RDPS_SpecificHumidity_IsbL-0275_RLatLon0.09_PT057H.grib2 2026-05-03 20:57 480K
20260503T18Z_MSC_RDPS_SpecificHumidity_IsbL-0300_RLatLon0.09_PT057H.grib2 2026-05-03 20:57 552K
20260503T18Z_MSC_RDPS_SpecificHumidity_IsbL-0350_RLatLon0.09_PT057H.grib2 2026-05-03 20:57 545K
20260503T18Z_MSC_RDPS_SpecificHumidity_IsbL-0400_RLatLon0.09_PT057H.grib2 2026-05-03 20:57 527K
20260503T18Z_MSC_RDPS_SpecificHumidity_IsbL-0450_RLatLon0.09_PT057H.grib2 2026-05-03 20:57 577K
20260503T18Z_MSC_RDPS_SpecificHumidity_IsbL-0500_RLatLon0.09_PT057H.grib2 2026-05-03 20:57 509K
20260503T18Z_MSC_RDPS_SpecificHumidity_IsbL-0550_RLatLon0.09_PT057H.grib2 2026-05-03 20:57 580K
20260503T18Z_MSC_RDPS_SpecificHumidity_IsbL-0600_RLatLon0.09_PT057H.grib2 2026-05-03 20:57 631K
20260503T18Z_MSC_RDPS_SpecificHumidity_IsbL-0650_RLatLon0.09_PT057H.grib2 2026-05-03 20:57 545K
20260503T18Z_MSC_RDPS_SpecificHumidity_IsbL-0700_RLatLon0.09_PT057H.grib2 2026-05-03 20:57 587K
20260503T18Z_MSC_RDPS_SpecificHumidity_IsbL-0750_RLatLon0.09_PT057H.grib2 2026-05-03 20:57 640K
20260503T18Z_MSC_RDPS_SpecificHumidity_IsbL-0800_RLatLon0.09_PT057H.grib2 2026-05-03 20:57 717K
20260503T18Z_MSC_RDPS_SpecificHumidity_IsbL-0850_RLatLon0.09_PT057H.grib2 2026-05-03 20:57 801K
20260503T18Z_MSC_RDPS_SpecificHumidity_IsbL-0875_RLatLon0.09_PT057H.grib2 2026-05-03 20:57 830K
20260503T18Z_MSC_RDPS_SpecificHumidity_IsbL-0900_RLatLon0.09_PT057H.grib2 2026-05-03 20:57 703K
20260503T18Z_MSC_RDPS_SpecificHumidity_IsbL-0925_RLatLon0.09_PT057H.grib2 2026-05-03 20:57 704K
20260503T18Z_MSC_RDPS_SpecificHumidity_IsbL-0950_RLatLon0.09_PT057H.grib2 2026-05-03 20:57 701K
20260503T18Z_MSC_RDPS_SpecificHumidity_IsbL-0970_RLatLon0.09_PT057H.grib2 2026-05-03 20:57 692K
20260503T18Z_MSC_RDPS_SpecificHumidity_IsbL-0985_RLatLon0.09_PT057H.grib2 2026-05-03 20:57 683K
20260503T18Z_MSC_RDPS_SpecificHumidity_IsbL-1000_RLatLon0.09_PT057H.grib2 2026-05-03 20:57 676K
20260503T18Z_MSC_RDPS_SpecificHumidity_IsbL-1015_RLatLon0.09_PT057H.grib2 2026-05-03 20:57 666K
20260503T18Z_MSC_RDPS_SpecificHumidity_Sfc_RLatLon0.09_PT057H.grib2 2026-05-03 20:57 315K
20260503T18Z_MSC_RDPS_StormRelativeHelicity_EtaL-10000_RLatLon0.09_PT057H.grib2 2026-05-03 20:57 1.1M
20260503T18Z_MSC_RDPS_StormSeverityIndex_EtaL-10000_RLatLon0.09_PT057H.grib2 2026-05-03 20:57 1.2M
20260503T18Z_MSC_RDPS_Thickness_IsbL-0850to0700_RLatLon0.09_PT057H.grib2 2026-05-03 20:57 176K
20260503T18Z_MSC_RDPS_Thickness_IsbL-1000to0500_RLatLon0.09_PT057H.grib2 2026-05-03 20:57 196K
20260503T18Z_MSC_RDPS_Thickness_IsbL-1000to0850_RLatLon0.09_PT057H.grib2 2026-05-03 20:57 182K
20260503T18Z_MSC_RDPS_TotalCloudCover_Sfc_RLatLon0.09_PT057H.grib2 2026-05-03 20:57 654K
20260503T18Z_MSC_RDPS_TotalTotalsIndex_Sfc_RLatLon0.09_PT057H.grib2 2026-05-03 20:57 2.4M
20260503T18Z_MSC_RDPS_UVIndex-ClearSky_Sfc_RLatLon0.09_PT057H.grib2 2026-05-03 20:57 101K
20260503T18Z_MSC_RDPS_UVIndex_Sfc_RLatLon0.09_PT057H.grib2 2026-05-03 20:57 199K
20260503T18Z_MSC_RDPS_UpwardLongwaveRadiationFlux_NTAtm_RLatLon0.09_PT057H.grib2 2026-05-03 20:57 484K
20260503T18Z_MSC_RDPS_UpwardShortwaveRadiationFlux_NTAtm_RLatLon0.09_PT057H.grib2 2026-05-03 20:57 192K
20260503T18Z_MSC_RDPS_VerticalVelocity_IsbL-0250_RLatLon0.09_PT057H.grib2 2026-05-03 20:57 430K
20260503T18Z_MSC_RDPS_VerticalVelocity_IsbL-0500_RLatLon0.09_PT057H.grib2 2026-05-03 20:57 547K
20260503T18Z_MSC_RDPS_VerticalVelocity_IsbL-0700_RLatLon0.09_PT057H.grib2 2026-05-03 20:57 596K
20260503T18Z_MSC_RDPS_VerticalVelocity_IsbL-0850_RLatLon0.09_PT057H.grib2 2026-05-03 20:57 697K
20260503T18Z_MSC_RDPS_VerticalWindShear_EtaL-6500_RLatLon0.09_PT057H.grib2 2026-05-03 20:57 1.2M
20260503T18Z_MSC_RDPS_WindChill_Sfc_RLatLon0.09_PT057H.grib2 2026-05-03 20:57 1.1M
20260503T18Z_MSC_RDPS_WindDir_AGL-10m_RLatLon0.09_PT057H.grib2 2026-05-03 20:57 931K
20260503T18Z_MSC_RDPS_WindDir_AGL-120m_RLatLon0.09_PT057H.grib2 2026-05-03 20:57 574K
20260503T18Z_MSC_RDPS_WindDir_AGL-40m_RLatLon0.09_PT057H.grib2 2026-05-03 20:57 603K
20260503T18Z_MSC_RDPS_WindDir_AGL-80m_RLatLon0.09_PT057H.grib2 2026-05-03 20:57 586K
20260503T18Z_MSC_RDPS_WindDir_IsbL-0001_RLatLon0.09_PT057H.grib2 2026-05-03 20:57 301K
20260503T18Z_MSC_RDPS_WindDir_IsbL-0005_RLatLon0.09_PT057H.grib2 2026-05-03 20:57 366K
20260503T18Z_MSC_RDPS_WindDir_IsbL-0010_RLatLon0.09_PT057H.grib2 2026-05-03 20:57 392K
20260503T18Z_MSC_RDPS_WindDir_IsbL-0020_RLatLon0.09_PT057H.grib2 2026-05-03 20:57 416K
20260503T18Z_MSC_RDPS_WindDir_IsbL-0030_RLatLon0.09_PT057H.grib2 2026-05-03 20:57 418K
20260503T18Z_MSC_RDPS_WindDir_IsbL-0050_RLatLon0.09_PT057H.grib2 2026-05-03 20:57 419K
20260503T18Z_MSC_RDPS_WindDir_IsbL-0100_RLatLon0.09_PT057H.grib2 2026-05-03 20:57 416K
20260503T18Z_MSC_RDPS_WindDir_IsbL-0150_RLatLon0.09_PT057H.grib2 2026-05-03 20:57 418K
20260503T18Z_MSC_RDPS_WindDir_IsbL-0175_RLatLon0.09_PT057H.grib2 2026-05-03 20:57 442K
20260503T18Z_MSC_RDPS_WindDir_IsbL-0200_RLatLon0.09_PT057H.grib2 2026-05-03 20:57 453K
20260503T18Z_MSC_RDPS_WindDir_IsbL-0225_RLatLon0.09_PT057H.grib2 2026-05-03 20:57 453K
20260503T18Z_MSC_RDPS_WindDir_IsbL-0250_RLatLon0.09_PT057H.grib2 2026-05-03 20:57 452K
20260503T18Z_MSC_RDPS_WindDir_IsbL-0275_RLatLon0.09_PT057H.grib2 2026-05-03 20:57 469K
20260503T18Z_MSC_RDPS_WindDir_IsbL-0300_RLatLon0.09_PT057H.grib2 2026-05-03 20:57 468K
20260503T18Z_MSC_RDPS_WindDir_IsbL-0350_RLatLon0.09_PT057H.grib2 2026-05-03 20:57 499K
20260503T18Z_MSC_RDPS_WindDir_IsbL-0400_RLatLon0.09_PT057H.grib2 2026-05-03 20:57 519K
20260503T18Z_MSC_RDPS_WindDir_IsbL-0450_RLatLon0.09_PT057H.grib2 2026-05-03 20:57 538K
20260503T18Z_MSC_RDPS_WindDir_IsbL-0500_RLatLon0.09_PT057H.grib2 2026-05-03 20:57 542K
20260503T18Z_MSC_RDPS_WindDir_IsbL-0550_RLatLon0.09_PT057H.grib2 2026-05-03 20:57 555K
20260503T18Z_MSC_RDPS_WindDir_IsbL-0600_RLatLon0.09_PT057H.grib2 2026-05-03 20:57 579K
20260503T18Z_MSC_RDPS_WindDir_IsbL-0650_RLatLon0.09_PT057H.grib2 2026-05-03 20:57 624K
20260503T18Z_MSC_RDPS_WindDir_IsbL-0700_RLatLon0.09_PT057H.grib2 2026-05-03 20:57 674K
20260503T18Z_MSC_RDPS_WindDir_IsbL-0750_RLatLon0.09_PT057H.grib2 2026-05-03 20:57 716K
20260503T18Z_MSC_RDPS_WindDir_IsbL-0800_RLatLon0.09_PT057H.grib2 2026-05-03 20:57 777K
20260503T18Z_MSC_RDPS_WindDir_IsbL-0850_RLatLon0.09_PT057H.grib2 2026-05-03 20:57 854K
20260503T18Z_MSC_RDPS_WindDir_IsbL-0875_RLatLon0.09_PT057H.grib2 2026-05-03 20:57 878K
20260503T18Z_MSC_RDPS_WindDir_IsbL-0900_RLatLon0.09_PT057H.grib2 2026-05-03 20:57 888K
20260503T18Z_MSC_RDPS_WindDir_IsbL-0925_RLatLon0.09_PT057H.grib2 2026-05-03 20:57 892K
20260503T18Z_MSC_RDPS_WindDir_IsbL-0950_RLatLon0.09_PT057H.grib2 2026-05-03 20:57 886K
20260503T18Z_MSC_RDPS_WindDir_IsbL-0970_RLatLon0.09_PT057H.grib2 2026-05-03 20:57 888K
20260503T18Z_MSC_RDPS_WindDir_IsbL-0985_RLatLon0.09_PT057H.grib2 2026-05-03 20:57 894K
20260503T18Z_MSC_RDPS_WindDir_IsbL-1000_RLatLon0.09_PT057H.grib2 2026-05-03 20:57 907K
20260503T18Z_MSC_RDPS_WindDir_IsbL-1015_RLatLon0.09_PT057H.grib2 2026-05-03 20:57 922K
20260503T18Z_MSC_RDPS_WindGust-Max_AGL-10m_RLatLon0.09_PT057H.grib2 2026-05-03 20:57 1.0M
20260503T18Z_MSC_RDPS_WindGust-Min_AGL-10m_RLatLon0.09_PT057H.grib2 2026-05-03 20:57 1.0M
20260503T18Z_MSC_RDPS_WindGust_AGL-10m_RLatLon0.09_PT057H.grib2 2026-05-03 20:57 1.0M
20260503T18Z_MSC_RDPS_WindSpeed_AGL-10m_RLatLon0.09_PT057H.grib2 2026-05-03 20:57 838K
20260503T18Z_MSC_RDPS_WindSpeed_AGL-120m_RLatLon0.09_PT057H.grib2 2026-05-03 20:57 535K
20260503T18Z_MSC_RDPS_WindSpeed_AGL-40m_RLatLon0.09_PT057H.grib2 2026-05-03 20:57 541K
20260503T18Z_MSC_RDPS_WindSpeed_AGL-80m_RLatLon0.09_PT057H.grib2 2026-05-03 20:57 537K
20260503T18Z_MSC_RDPS_WindSpeed_IsbL-0001_RLatLon0.09_PT057H.grib2 2026-05-03 20:57 331K
20260503T18Z_MSC_RDPS_WindSpeed_IsbL-0005_RLatLon0.09_PT057H.grib2 2026-05-03 20:57 383K
20260503T18Z_MSC_RDPS_WindSpeed_IsbL-0010_RLatLon0.09_PT057H.grib2 2026-05-03 20:57 365K
20260503T18Z_MSC_RDPS_WindSpeed_IsbL-0020_RLatLon0.09_PT057H.grib2 2026-05-03 20:57 418K
20260503T18Z_MSC_RDPS_WindSpeed_IsbL-0030_RLatLon0.09_PT057H.grib2 2026-05-03 20:57 319K
20260503T18Z_MSC_RDPS_WindSpeed_IsbL-0050_RLatLon0.09_PT057H.grib2 2026-05-03 20:57 351K
20260503T18Z_MSC_RDPS_WindSpeed_IsbL-0100_RLatLon0.09_PT057H.grib2 2026-05-03 20:57 474K
20260503T18Z_MSC_RDPS_WindSpeed_IsbL-0150_RLatLon0.09_PT057H.grib2 2026-05-03 20:57 381K
20260503T18Z_MSC_RDPS_WindSpeed_IsbL-0175_RLatLon0.09_PT057H.grib2 2026-05-03 20:57 427K
20260503T18Z_MSC_RDPS_WindSpeed_IsbL-0200_RLatLon0.09_PT057H.grib2 2026-05-03 20:57 441K
20260503T18Z_MSC_RDPS_WindSpeed_IsbL-0225_RLatLon0.09_PT057H.grib2 2026-05-03 20:57 444K
20260503T18Z_MSC_RDPS_WindSpeed_IsbL-0250_RLatLon0.09_PT057H.grib2 2026-05-03 20:57 445K
20260503T18Z_MSC_RDPS_WindSpeed_IsbL-0275_RLatLon0.09_PT057H.grib2 2026-05-03 20:57 463K
20260503T18Z_MSC_RDPS_WindSpeed_IsbL-0300_RLatLon0.09_PT057H.grib2 2026-05-03 20:57 462K
20260503T18Z_MSC_RDPS_WindSpeed_IsbL-0350_RLatLon0.09_PT057H.grib2 2026-05-03 20:57 477K
20260503T18Z_MSC_RDPS_WindSpeed_IsbL-0400_RLatLon0.09_PT057H.grib2 2026-05-03 20:57 480K
20260503T18Z_MSC_RDPS_WindSpeed_IsbL-0450_RLatLon0.09_PT057H.grib2 2026-05-03 20:57 463K
20260503T18Z_MSC_RDPS_WindSpeed_IsbL-0500_RLatLon0.09_PT057H.grib2 2026-05-03 20:57 463K
20260503T18Z_MSC_RDPS_WindSpeed_IsbL-0550_RLatLon0.09_PT057H.grib2 2026-05-03 20:57 464K
20260503T18Z_MSC_RDPS_WindSpeed_IsbL-0600_RLatLon0.09_PT057H.grib2 2026-05-03 20:57 472K
20260503T18Z_MSC_RDPS_WindSpeed_IsbL-0650_RLatLon0.09_PT057H.grib2 2026-05-03 20:57 610K
20260503T18Z_MSC_RDPS_WindSpeed_IsbL-0700_RLatLon0.09_PT057H.grib2 2026-05-03 20:57 633K
20260503T18Z_MSC_RDPS_WindSpeed_IsbL-0750_RLatLon0.09_PT057H.grib2 2026-05-03 20:57 704K
20260503T18Z_MSC_RDPS_WindSpeed_IsbL-0800_RLatLon0.09_PT057H.grib2 2026-05-03 20:57 751K
20260503T18Z_MSC_RDPS_WindSpeed_IsbL-0850_RLatLon0.09_PT057H.grib2 2026-05-03 20:57 819K
20260503T18Z_MSC_RDPS_WindSpeed_IsbL-0875_RLatLon0.09_PT057H.grib2 2026-05-03 20:57 845K
20260503T18Z_MSC_RDPS_WindSpeed_IsbL-0900_RLatLon0.09_PT057H.grib2 2026-05-03 20:57 860K
20260503T18Z_MSC_RDPS_WindSpeed_IsbL-0925_RLatLon0.09_PT057H.grib2 2026-05-03 20:57 873K
20260503T18Z_MSC_RDPS_WindSpeed_IsbL-0950_RLatLon0.09_PT057H.grib2 2026-05-03 20:57 872K
20260503T18Z_MSC_RDPS_WindSpeed_IsbL-0970_RLatLon0.09_PT057H.grib2 2026-05-03 20:57 870K
20260503T18Z_MSC_RDPS_WindSpeed_IsbL-0985_RLatLon0.09_PT057H.grib2 2026-05-03 20:57 862K
20260503T18Z_MSC_RDPS_WindSpeed_IsbL-1000_RLatLon0.09_PT057H.grib2 2026-05-03 20:57 853K
20260503T18Z_MSC_RDPS_WindSpeed_IsbL-1015_RLatLon0.09_PT057H.grib2 2026-05-03 20:57 839K
20260503T18Z_MSC_RDPS_WindU_AGL-10m_RLatLon0.09_PT057H.grib2 2026-05-03 20:57 429K
20260503T18Z_MSC_RDPS_WindU_AGL-120m_RLatLon0.09_PT057H.grib2 2026-05-03 20:57 415K
20260503T18Z_MSC_RDPS_WindU_AGL-40m_RLatLon0.09_PT057H.grib2 2026-05-03 20:57 535K
20260503T18Z_MSC_RDPS_WindU_AGL-80m_RLatLon0.09_PT057H.grib2 2026-05-03 20:57 533K
20260503T18Z_MSC_RDPS_WindU_IsbL-0001_RLatLon0.09_PT057H.grib2 2026-05-03 20:57 241K
20260503T18Z_MSC_RDPS_WindU_IsbL-0005_RLatLon0.09_PT057H.grib2 2026-05-03 20:57 283K
20260503T18Z_MSC_RDPS_WindU_IsbL-0010_RLatLon0.09_PT057H.grib2 2026-05-03 20:57 294K
20260503T18Z_MSC_RDPS_WindU_IsbL-0020_RLatLon0.09_PT057H.grib2 2026-05-03 20:57 312K
20260503T18Z_MSC_RDPS_WindU_IsbL-0030_RLatLon0.09_PT057H.grib2 2026-05-03 20:57 350K
20260503T18Z_MSC_RDPS_WindU_IsbL-0050_RLatLon0.09_PT057H.grib2 2026-05-03 20:57 380K
20260503T18Z_MSC_RDPS_WindU_IsbL-0100_RLatLon0.09_PT057H.grib2 2026-05-03 20:57 430K
20260503T18Z_MSC_RDPS_WindU_IsbL-0150_RLatLon0.09_PT057H.grib2 2026-05-03 20:57 397K
20260503T18Z_MSC_RDPS_WindU_IsbL-0175_RLatLon0.09_PT057H.grib2 2026-05-03 20:57 325K
20260503T18Z_MSC_RDPS_WindU_IsbL-0200_RLatLon0.09_PT057H.grib2 2026-05-03 20:57 337K
20260503T18Z_MSC_RDPS_WindU_IsbL-0225_RLatLon0.09_PT057H.grib2 2026-05-03 20:57 337K
20260503T18Z_MSC_RDPS_WindU_IsbL-0250_RLatLon0.09_PT057H.grib2 2026-05-03 20:57 337K
20260503T18Z_MSC_RDPS_WindU_IsbL-0275_RLatLon0.09_PT057H.grib2 2026-05-03 20:57 352K
20260503T18Z_MSC_RDPS_WindU_IsbL-0300_RLatLon0.09_PT057H.grib2 2026-05-03 20:57 349K
20260503T18Z_MSC_RDPS_WindU_IsbL-0350_RLatLon0.09_PT057H.grib2 2026-05-03 20:57 361K
20260503T18Z_MSC_RDPS_WindU_IsbL-0400_RLatLon0.09_PT057H.grib2 2026-05-03 20:57 468K
20260503T18Z_MSC_RDPS_WindU_IsbL-0450_RLatLon0.09_PT057H.grib2 2026-05-03 20:57 469K
20260503T18Z_MSC_RDPS_WindU_IsbL-0500_RLatLon0.09_PT057H.grib2 2026-05-03 20:57 470K
20260503T18Z_MSC_RDPS_WindU_IsbL-0550_RLatLon0.09_PT057H.grib2 2026-05-03 20:57 471K
20260503T18Z_MSC_RDPS_WindU_IsbL-0600_RLatLon0.09_PT057H.grib2 2026-05-03 20:57 481K
20260503T18Z_MSC_RDPS_WindU_IsbL-0650_RLatLon0.09_PT057H.grib2 2026-05-03 20:57 499K
20260503T18Z_MSC_RDPS_WindU_IsbL-0700_RLatLon0.09_PT057H.grib2 2026-05-03 20:57 502K
20260503T18Z_MSC_RDPS_WindU_IsbL-0750_RLatLon0.09_PT057H.grib2 2026-05-03 20:57 527K
20260503T18Z_MSC_RDPS_WindU_IsbL-0800_RLatLon0.09_PT057H.grib2 2026-05-03 20:57 568K
20260503T18Z_MSC_RDPS_WindU_IsbL-0850_RLatLon0.09_PT057H.grib2 2026-05-03 20:57 628K
20260503T18Z_MSC_RDPS_WindU_IsbL-0875_RLatLon0.09_PT057H.grib2 2026-05-03 20:57 649K
20260503T18Z_MSC_RDPS_WindU_IsbL-0900_RLatLon0.09_PT057H.grib2 2026-05-03 20:57 660K
20260503T18Z_MSC_RDPS_WindU_IsbL-0925_RLatLon0.09_PT057H.grib2 2026-05-03 20:57 668K
20260503T18Z_MSC_RDPS_WindU_IsbL-0950_RLatLon0.09_PT057H.grib2 2026-05-03 20:57 661K
20260503T18Z_MSC_RDPS_WindU_IsbL-0970_RLatLon0.09_PT057H.grib2 2026-05-03 20:57 797K
20260503T18Z_MSC_RDPS_WindU_IsbL-0985_RLatLon0.09_PT057H.grib2 2026-05-03 20:57 788K
20260503T18Z_MSC_RDPS_WindU_IsbL-1000_RLatLon0.09_PT057H.grib2 2026-05-03 20:57 781K
20260503T18Z_MSC_RDPS_WindU_IsbL-1015_RLatLon0.09_PT057H.grib2 2026-05-03 20:57 774K
20260503T18Z_MSC_RDPS_WindV_AGL-10m_RLatLon0.09_PT057H.grib2 2026-05-03 20:57 431K
20260503T18Z_MSC_RDPS_WindV_AGL-120m_RLatLon0.09_PT057H.grib2 2026-05-03 20:57 415K
20260503T18Z_MSC_RDPS_WindV_AGL-40m_RLatLon0.09_PT057H.grib2 2026-05-03 20:57 536K
20260503T18Z_MSC_RDPS_WindV_AGL-80m_RLatLon0.09_PT057H.grib2 2026-05-03 20:57 417K
20260503T18Z_MSC_RDPS_WindV_IsbL-0001_RLatLon0.09_PT057H.grib2 2026-05-03 20:57 246K
20260503T18Z_MSC_RDPS_WindV_IsbL-0005_RLatLon0.09_PT057H.grib2 2026-05-03 20:57 287K
20260503T18Z_MSC_RDPS_WindV_IsbL-0010_RLatLon0.09_PT057H.grib2 2026-05-03 20:57 297K
20260503T18Z_MSC_RDPS_WindV_IsbL-0020_RLatLon0.09_PT057H.grib2 2026-05-03 20:57 315K
20260503T18Z_MSC_RDPS_WindV_IsbL-0030_RLatLon0.09_PT057H.grib2 2026-05-03 20:57 314K
20260503T18Z_MSC_RDPS_WindV_IsbL-0050_RLatLon0.09_PT057H.grib2 2026-05-03 20:57 345K
20260503T18Z_MSC_RDPS_WindV_IsbL-0100_RLatLon0.09_PT057H.grib2 2026-05-03 20:57 425K
20260503T18Z_MSC_RDPS_WindV_IsbL-0150_RLatLon0.09_PT057H.grib2 2026-05-03 20:57 395K
20260503T18Z_MSC_RDPS_WindV_IsbL-0175_RLatLon0.09_PT057H.grib2 2026-05-03 20:57 323K
20260503T18Z_MSC_RDPS_WindV_IsbL-0200_RLatLon0.09_PT057H.grib2 2026-05-03 20:57 333K
20260503T18Z_MSC_RDPS_WindV_IsbL-0225_RLatLon0.09_PT057H.grib2 2026-05-03 20:57 337K
20260503T18Z_MSC_RDPS_WindV_IsbL-0250_RLatLon0.09_PT057H.grib2 2026-05-03 20:57 339K
20260503T18Z_MSC_RDPS_WindV_IsbL-0275_RLatLon0.09_PT057H.grib2 2026-05-03 20:57 353K
20260503T18Z_MSC_RDPS_WindV_IsbL-0300_RLatLon0.09_PT057H.grib2 2026-05-03 20:57 375K
20260503T18Z_MSC_RDPS_WindV_IsbL-0350_RLatLon0.09_PT057H.grib2 2026-05-03 20:57 360K
20260503T18Z_MSC_RDPS_WindV_IsbL-0400_RLatLon0.09_PT057H.grib2 2026-05-03 20:57 364K
20260503T18Z_MSC_RDPS_WindV_IsbL-0450_RLatLon0.09_PT057H.grib2 2026-05-03 20:57 364K
20260503T18Z_MSC_RDPS_WindV_IsbL-0500_RLatLon0.09_PT057H.grib2 2026-05-03 20:57 467K
20260503T18Z_MSC_RDPS_WindV_IsbL-0550_RLatLon0.09_PT057H.grib2 2026-05-03 20:57 469K
20260503T18Z_MSC_RDPS_WindV_IsbL-0600_RLatLon0.09_PT057H.grib2 2026-05-03 20:57 477K
20260503T18Z_MSC_RDPS_WindV_IsbL-0650_RLatLon0.09_PT057H.grib2 2026-05-03 20:57 494K
20260503T18Z_MSC_RDPS_WindV_IsbL-0700_RLatLon0.09_PT057H.grib2 2026-05-03 20:57 514K
20260503T18Z_MSC_RDPS_WindV_IsbL-0750_RLatLon0.09_PT057H.grib2 2026-05-03 20:57 522K
20260503T18Z_MSC_RDPS_WindV_IsbL-0800_RLatLon0.09_PT057H.grib2 2026-05-03 20:57 563K
20260503T18Z_MSC_RDPS_WindV_IsbL-0850_RLatLon0.09_PT057H.grib2 2026-05-03 20:57 621K
20260503T18Z_MSC_RDPS_WindV_IsbL-0875_RLatLon0.09_PT057H.grib2 2026-05-03 20:57 644K
20260503T18Z_MSC_RDPS_WindV_IsbL-0900_RLatLon0.09_PT057H.grib2 2026-05-03 20:57 656K
20260503T18Z_MSC_RDPS_WindV_IsbL-0925_RLatLon0.09_PT057H.grib2 2026-05-03 20:57 671K
20260503T18Z_MSC_RDPS_WindV_IsbL-0950_RLatLon0.09_PT057H.grib2 2026-05-03 20:57 668K
20260503T18Z_MSC_RDPS_WindV_IsbL-0970_RLatLon0.09_PT057H.grib2 2026-05-03 20:57 665K
20260503T18Z_MSC_RDPS_WindV_IsbL-0985_RLatLon0.09_PT057H.grib2 2026-05-03 20:57 652K
20260503T18Z_MSC_RDPS_WindV_IsbL-1000_RLatLon0.09_PT057H.grib2 2026-05-03 20:57 645K
20260503T18Z_MSC_RDPS_WindV_IsbL-1015_RLatLon0.09_PT057H.grib2 2026-05-03 20:57 776K